Beatrice, NE

11:41 AM CDT on April 29, 2017 (GMT -0500)
Beatrice Municipal

Weather History for KBIE - November, 2012

Change the Weather History Date:

Saturday, November 3, 2012

  Actual Average Record
Temperature  
Mean Temperature 42 °F -  
Max Temperature 56 °F 55 °F 78 °F (1953)
Min Temperature 29 °F 36 °F 12 °F (1951)
Degree Days  
Heating Degree Days 22    
Moisture  
Dew Point 29 °F    
Average Humidity 63    
Maximum Humidity 86    
Minimum Humidity 36    
Precipitation  
Precipitation 0.00 in - - ()
Sea Level Pressure  
Sea Level Pressure 30.17 in    
Wind  
Wind Speed 6 mph (NNW)    
Max Wind Speed 9 mph    
Max Gust Speed -    
Visibility 10 miles    
Events      
Averages and records for this station are not official NWS values.
T = Trace of Precipitation, MM = Missing Value Source: NWS Daily Summary

Daily Weather History Graph

Daily Weather History Graph

Search for Another Location

Airport or City:

Trip Planner

Search our weather history database for the weather conditions in past years. The results will help you decide how hot, cold, wet, or windy it might be!

Date:

Astronomy

Nov. 03, 2012 Rise Set
Actual Time 7:59 AM CDT 6:21 PM CDT
Civil Twilight 7:31 AM CDT 6:49 PM CDT
Nautical Twilight 6:58 AM CDT 7:21 PM CDT
Astronomical Twilight 6:27 AM CDT 7:53 PM CDT
Moon 10:03 PM CDT (11/3) 12:04 PM CDT (11/3)
Length of Visible Light 11h 18m
Length of Day
10h 21m
Waning Gibbous, 80% of the Moon is Illuminated
Nov 3
Waning Gibbous
Nov 6
Last Quarter
Nov 13
New
Nov 20
First Quarter
Nov 28
Full

Hourly Weather History & Observations

Time (CDT) Temp. Windchill Dew Point Humidity Pressure Visibility Wind Dir Wind Speed Gust Speed Precip Events Conditions
12:15 AM 38.3 °F 32.5 °F 28.8 °F 69% 30.07 in 10.0 mi North 8.1 mph - N/A   Clear
12:35 AM 38.3 °F 33.2 °F 28.6 °F 68% 30.07 in 10.0 mi North 6.9 mph - N/A   Clear
12:55 AM 36.9 °F 30.1 °F 28.9 °F 73% 30.08 in 10.0 mi North 9.2 mph - N/A   Clear
1:15 AM 37.8 °F 31.3 °F 28.9 °F 71% 30.08 in 10.0 mi North 9.2 mph - N/A   Clear
1:35 AM 36.9 °F 30.1 °F 28.6 °F 72% 30.08 in 10.0 mi North 9.2 mph - N/A   Clear
1:55 AM 35.8 °F 29.4 °F 28.4 °F 75% 30.08 in 10.0 mi North 8.1 mph - N/A   Clear
2:15 AM 34.9 °F 28.3 °F 28.2 °F 77% 30.08 in 10.0 mi North 8.1 mph - N/A   Clear
2:35 AM 35.8 °F 30.9 °F 28.0 °F 73% 30.08 in 10.0 mi North 5.8 mph - N/A   Clear
2:55 AM 34.7 °F 29.6 °F 27.5 °F 75% 30.10 in 10.0 mi North 5.8 mph - N/A   Clear
3:15 AM 34.3 °F 28.4 °F 27.9 °F 77% 30.10 in 10.0 mi North 6.9 mph - N/A   Clear
3:35 AM 34.2 °F 27.5 °F 27.7 °F 77% 30.11 in 10.0 mi NNW 8.1 mph - N/A   Clear
3:55 AM 32.9 °F 25.9 °F 27.1 °F 79% 30.11 in 10.0 mi NW 8.1 mph - N/A   Clear
4:15 AM 32.2 °F 26.7 °F 26.8 °F 80% 30.11 in 10.0 mi NNW 5.8 mph - N/A   Clear
4:35 AM 31.5 °F 25.8 °F 26.6 °F 82% 30.12 in 10.0 mi NNW 5.8 mph - N/A   Clear
4:55 AM 30.9 °F 27.5 °F 26.1 °F 82% 30.12 in 10.0 mi North 3.5 mph - N/A   Clear
5:15 AM 30.6 °F 25.8 °F 25.7 °F 82% 30.12 in 10.0 mi North 4.6 mph - N/A   Clear
5:35 AM 31.1 °F 26.4 °F 26.4 °F 83% 30.12 in 10.0 mi North 4.6 mph - N/A   Clear
5:55 AM 30.0 °F 23.2 °F 25.3 °F 83% 30.14 in 10.0 mi NW 6.9 mph - N/A   Clear
6:15 AM 29.5 °F 22.5 °F 25.0 °F 83% 30.15 in 10.0 mi NW 6.9 mph - N/A   Clear
6:35 AM 31.1 °F 24.5 °F 26.6 °F 83% 30.16 in 10.0 mi NNW 6.9 mph - N/A   Clear
6:55 AM 31.5 °F 24.9 °F 26.6 °F 82% 30.16 in 10.0 mi NNW 6.9 mph - N/A   Clear
7:15 AM 30.4 °F 25.6 °F 25.9 °F 83% 30.17 in 10.0 mi NNW 4.6 mph - N/A   Clear
7:35 AM 30.0 °F 24.1 °F 25.9 °F 85% 30.17 in 7.0 mi NW 5.8 mph - N/A   Clear
7:55 AM 29.8 °F 24.9 °F 25.7 °F 85% 30.17 in 7.0 mi NW 4.6 mph - N/A   Clear
8:15 AM 30.2 °F 25.4 °F 26.2 °F 85% 30.18 in 7.0 mi NW 4.6 mph - N/A   Clear
8:35 AM 31.3 °F 25.6 °F 27.3 °F 85% 30.19 in 7.0 mi NW 5.8 mph - N/A   Clear
8:55 AM 32.9 °F 26.7 °F 29.1 °F 86% 30.20 in 7.0 mi NNW 6.9 mph - N/A   Clear
9:15 AM 35.1 °F 28.6 °F 30.0 °F 82% 30.20 in 7.0 mi NNW 8.1 mph - N/A   Clear
9:35 AM 37.6 °F 31.6 °F 30.9 °F 77% 30.20 in 10.0 mi NNW 8.1 mph - N/A   Clear
9:55 AM 39.4 °F 34.5 °F 31.3 °F 73% 30.21 in 10.0 mi North 6.9 mph - N/A   Clear
10:15 AM 41.4 °F 38.4 °F 30.9 °F 66% 30.21 in 10.0 mi NNW 4.6 mph - N/A   Clear
10:35 AM 43.2 °F 39.7 °F 31.1 °F 62% 30.22 in 10.0 mi NNW 5.8 mph - N/A   Clear
10:55 AM 45.3 °F 43.0 °F 30.9 °F 57% 30.22 in 10.0 mi North 4.6 mph - N/A   Clear
11:15 AM 46.8 °F - 30.0 °F 52% 30.22 in 10.0 mi North 9.2 mph - N/A   Clear
11:35 AM 47.7 °F - 29.1 °F 49% 30.22 in 10.0 mi North 5.8 mph - N/A   Clear
11:55 AM 50.0 °F - 28.8 °F 44% 30.22 in 10.0 mi NNE 8.1 mph - N/A   Clear
12:15 PM 50.0 °F - 27.7 °F 42% 30.22 in 10.0 mi NNW 6.9 mph - N/A   Clear
12:35 PM 50.9 °F - 28.4 °F 42% 30.22 in 10.0 mi Calm Calm - N/A   Clear
12:55 PM 52.0 °F - 28.2 °F 40% 30.20 in 10.0 mi North 4.6 mph - N/A   Clear
1:15 PM 52.7 °F - 28.6 °F 40% 30.20 in 10.0 mi NNW 8.1 mph - N/A   Clear
1:35 PM 53.1 °F - 28.0 °F 38% 30.20 in 10.0 mi NNW 3.5 mph - N/A   Clear
1:55 PM 54.0 °F - 28.6 °F 38% 30.20 in 10.0 mi WNW 5.8 mph - N/A   Clear
2:15 PM 54.7 °F - 28.4 °F 36% 30.19 in 10.0 mi NW 4.6 mph - N/A   Clear
2:35 PM 54.5 °F - 28.9 °F 38% 30.18 in 10.0 mi North 8.1 mph - N/A   Clear
2:55 PM 55.4 °F - 29.3 °F 37% 30.17 in 10.0 mi North 6.9 mph - N/A   Clear
3:15 PM 55.8 °F - 29.8 °F 37% 30.17 in 10.0 mi North 6.9 mph - N/A   Clear
3:35 PM 55.6 °F - 29.7 °F 37% 30.17 in 10.0 mi NW 3.5 mph - N/A   Clear
3:55 PM 56.1 °F - 30.2 °F 37% 30.17 in 10.0 mi North 3.5 mph - N/A   Clear
4:15 PM 56.5 °F - 30.2 °F 37% 30.17 in 10.0 mi NNW 5.8 mph - N/A   Clear
4:35 PM 55.8 °F - 30.2 °F 38% 30.17 in 10.0 mi NNW 3.5 mph - N/A   Clear
4:55 PM 55.8 °F - 30.4 °F 38% 30.17 in 10.0 mi Calm Calm - N/A   Clear
5:15 PM 55.4 °F - 31.1 °F 40% 30.17 in 10.0 mi Calm Calm - N/A   Clear
5:35 PM 54.9 °F - 30.9 °F 40% 30.17 in 10.0 mi NE 3.5 mph - N/A   Clear
5:55 PM 53.1 °F - 31.5 °F 44% 30.17 in 10.0 mi NE 3.5 mph - N/A   Clear
6:15 PM 52.9 °F - 31.1 °F 43% 30.17 in 1.2 mi Calm Calm - N/A   Haze
6:35 PM 52.2 °F - 31.1 °F 45% 30.17 in 10.0 mi ENE 3.5 mph - N/A   Clear
6:55 PM 50.9 °F - 31.6 °F 48% 30.17 in 10.0 mi East 3.5 mph - N/A   Clear
7:15 PM 47.5 °F - 31.1 °F 53% 30.18 in 10.0 mi Calm Calm - N/A   Clear
7:35 PM 46.6 °F - 30.9 °F 54% 30.18 in 10.0 mi Calm Calm - N/A   Clear
7:55 PM 42.4 °F - 29.8 °F 61% 30.19 in 10.0 mi Calm Calm - N/A   Clear
8:15 PM 41.2 °F - 30.4 °F 65% 30.20 in 10.0 mi Calm Calm - N/A   Clear
8:35 PM 42.6 °F 39.9 °F 31.1 °F 64% 30.20 in 10.0 mi NE 4.6 mph - N/A   Mostly Cloudy
8:55 PM 42.8 °F - 31.1 °F 63% 30.20 in 10.0 mi Calm Calm - N/A   Scattered Clouds
9:15 PM 40.6 °F - 30.7 °F 68% 30.19 in 10.0 mi Calm Calm - N/A   Scattered Clouds
9:35 PM 39.6 °F - 29.3 °F 67% 30.19 in 10.0 mi Calm Calm - N/A   Scattered Clouds
9:55 PM 38.5 °F - 29.1 °F 69% 30.19 in 10.0 mi Calm Calm - N/A   Scattered Clouds
10:15 PM 37.9 °F - 29.7 °F 72% 30.20 in 10.0 mi Calm Calm - N/A   Clear
10:35 PM 36.7 °F - 28.8 °F 73% 30.20 in 10.0 mi Calm Calm - N/A   Clear
10:55 PM 36.7 °F - 29.5 °F 75% 30.19 in 10.0 mi Calm Calm - N/A   Scattered Clouds
11:15 PM 37.2 °F - 29.8 °F 75% 30.19 in 10.0 mi Calm Calm - N/A   Mostly Cloudy
11:35 PM 37.9 °F - 31.6 °F 78% 30.19 in 10.0 mi Calm Calm - N/A   Overcast
11:55 PM 39.7 °F - 31.8 °F 73% 30.19 in 10.0 mi Calm Calm - N/A   Overcast